#datint,netname,site,siteID,timestamp,AirT,Td,RH_Avg,Solar_W,WindS_Max,WindS_Avg,WindD_Avg,Rain,rain_hour,rain_day,SoilT4,SoilT8,SoilVWC
15min,AgWx,beryljct,423,12AUG2017:00:00:00,60.3,54.2,82,0,6.4,4.5,323,0.00,0.00,0.02,71.2,69.1,.
15min,AgWx,beryljct,423,12AUG2017:00:15:00,61.1,55.1,82,0,5.7,4.1,322,0.00,0.00,0.02,70.9,69.1,.
15min,AgWx,beryljct,423,12AUG2017:00:30:00,60.9,55.1,80,0,7.5,5.4,327,0.00,0.00,0.02,70.6,69.1,.
15min,AgWx,beryljct,423,12AUG2017:00:45:00,62.6,54.2,76,0,4.6,3.4,272,0.00,0.00,0.02,70.4,69.1,.
15min,AgWx,beryljct,423,12AUG2017:01:00:00,57.1,53.5,78,0,5.0,3.0,135,0.00,0.00,0.02,70.1,69.1,.
15min,AgWx,beryljct,423,12AUG2017:01:15:00,56.8,50.6,81,0,6.7,4.7,174,0.00,0.00,0.02,69.8,69.1,.
15min,AgWx,beryljct,423,12AUG2017:01:30:00,57.5,51.1,81,0,6.1,3.9,193,0.00,0.00,0.02,69.6,69.1,.
15min,AgWx,beryljct,423,12AUG2017:01:45:00,58.3,52.5,82,0,5.8,4.5,198,0.00,0.00,0.02,69.3,69.1,.
15min,AgWx,beryljct,423,12AUG2017:02:00:00,58.3,53.1,82,0,5.0,4.1,229,0.00,0.00,0.02,69.0,69.1,.
15min,AgWx,beryljct,423,12AUG2017:02:15:00,59.2,53.2,79,0,4.0,3.0,219,0.00,0.00,0.02,68.7,69.1,.
15min,AgWx,beryljct,423,12AUG2017:02:30:00,58.6,52.8,82,0,3.7,1.5,202,0.00,0.00,0.02,68.5,69.1,.
15min,AgWx,beryljct,423,12AUG2017:02:45:00,58.2,52.8,82,0,2.2,0.6,170,0.00,0.00,0.02,68.3,69.1,.
15min,AgWx,beryljct,423,12AUG2017:03:00:00,56.9,52.4,80,0,6.0,3.3,14,0.00,0.00,0.02,68.1,69.1,.
15min,AgWx,beryljct,423,12AUG2017:03:15:00,57.9,51.7,82,0,6.3,3.1,357,0.00,0.00,0.02,67.9,69.1,.
15min,AgWx,beryljct,423,12AUG2017:03:30:00,57.7,52.2,82,0,7.5,4.3,5.7,0.00,0.00,0.02,67.6,69.1,.
15min,AgWx,beryljct,423,12AUG2017:03:45:00,55.0,50.3,81,0,4.9,1.4,213,0.00,0.00,0.02,67.4,69.1,.
15min,AgWx,beryljct,423,12AUG2017:04:00:00,53.5,48.5,81,0,5.3,3.5,174,0.00,0.00,0.02,67.2,69.1,.
15min,AgWx,beryljct,423,12AUG2017:04:15:00,54.2,47.7,80,0,6.1,4.7,164,0.00,0.00,0.02,66.9,69.1,.
15min,AgWx,beryljct,423,12AUG2017:04:30:00,55.9,49.5,81,0,7.1,5.7,178,0.00,0.00,0.02,66.7,69.1,.
15min,AgWx,beryljct,423,12AUG2017:04:45:00,57.3,51.0,82,0,6.5,5.2,179,0.00,0.00,0.02,66.6,69.1,.
15min,AgWx,beryljct,423,12AUG2017:05:00:00,58.0,52.3,82,0,7.2,5.8,176,0.00,0.00,0.02,66.3,69.1,.
15min,AgWx,beryljct,423,12AUG2017:05:15:00,57.3,51.9,82,0,5.0,3.1,224,0.00,0.00,0.02,66.2,69.1,.
15min,AgWx,beryljct,423,12AUG2017:05:30:00,54.8,50.2,82,0,5.7,2.8,309,0.00,0.00,0.02,66.0,69.1,.
15min,AgWx,beryljct,423,12AUG2017:05:45:00,55.6,49.4,81,0,3.1,0.9,295,0.00,0.00,0.02,65.9,69.1,.
15min,AgWx,beryljct,423,12AUG2017:06:00:00,54.5,49.2,81,0,1.2,0.3,144,0.00,0.00,0.02,65.7,69.1,.
15min,AgWx,beryljct,423,12AUG2017:06:15:00,54.5,48.5,81,0,1.2,0.2,121,0.00,0.00,0.02,65.4,69.1,.
15min,AgWx,beryljct,423,12AUG2017:06:30:00,54.5,48.9,81,0,1.7,0.6,150,0.00,0.00,0.02,65.3,69.1,.
15min,AgWx,beryljct,423,12AUG2017:06:45:00,53.5,47.9,81,1,1.5,0.2,162,0.00,0.00,0.02,65.1,69.1,.
15min,AgWx,beryljct,423,12AUG2017:07:00:00,53.6,48.0,81,11,2.1,0.8,112,0.00,0.00,0.02,64.9,69.1,.
15min,AgWx,beryljct,423,12AUG2017:07:15:00,53.1,47.5,81,29,2.1,0.8,145,0.00,0.00,0.02,64.7,69.1,.
15min,AgWx,beryljct,423,12AUG2017:07:30:00,54.1,47.7,81,88,3.2,2.1,172,0.00,0.00,0.02,64.5,69.1,.
15min,AgWx,beryljct,423,12AUG2017:07:45:00,56.9,49.8,81,116,2.6,1.0,181,0.00,0.00,0.02,64.3,69.1,.
15min,AgWx,beryljct,423,12AUG2017:08:00:00,57.6,51.4,81,156,3.0,2.0,124,0.00,0.00,0.02,64.3,69.1,.
15min,AgWx,beryljct,423,12AUG2017:08:15:00,60.0,52.8,82,201,3.3,1.8,152,0.00,0.00,0.02,64.1,69.1,.
15min,AgWx,beryljct,423,12AUG2017:08:30:00,63.5,55.6,79,248,1.9,0.7,141,0.00,0.00,0.02,64.2,69.1,.
15min,AgWx,beryljct,423,12AUG2017:08:45:00,64.6,56.1,77,297,2.2,1.6,153,0.00,0.00,0.02,64.1,69.1,.
15min,AgWx,beryljct,423,12AUG2017:09:00:00,65.9,57.3,74,345,3.2,2.1,140,0.00,0.00,0.02,64.4,69.1,.
15min,AgWx,beryljct,423,12AUG2017:09:15:00,67.6,57.8,72,392,4.2,2.8,143,0.00,0.00,0.02,64.5,69.1,.
15min,AgWx,beryljct,423,12AUG2017:09:30:00,70.9,57.7,66,439,3.9,2.0,114,0.00,0.00,0.02,64.9,69.1,.
15min,AgWx,beryljct,423,12AUG2017:09:45:00,72.7,56.5,58,486,2.4,1.0,96,0.00,0.00,0.02,65.4,69.1,.
15min,AgWx,beryljct,423,12AUG2017:10:00:00,73.7,56.9,56,531,3.0,1.4,102,0.00,0.00,0.02,66.0,69.1,.
15min,AgWx,beryljct,423,12AUG2017:10:15:00,74.9,58.1,57,574,3.0,1.8,127,0.00,0.00,0.02,66.8,69.1,.
15min,AgWx,beryljct,423,12AUG2017:10:30:00,76.3,57.3,53,618,3.2,2.0,137,0.00,0.00,0.02,67.5,69.1,.
15min,AgWx,beryljct,423,12AUG2017:10:45:00,79.1,59.3,53,658,7.7,3.1,144,0.00,0.00,0.02,68.4,69.1,.
15min,AgWx,beryljct,423,12AUG2017:11:00:00,79.9,57.7,47,693,15.0,8.9,177,0.00,0.00,0.02,69.2,69.1,.
15min,AgWx,beryljct,423,12AUG2017:11:15:00,80.8,56.3,44,739,16.7,11.0,176,0.00,0.00,0.02,70.2,69.1,.
15min,AgWx,beryljct,423,12AUG2017:11:30:00,79.9,56.7,44,786,15.5,10.2,189,0.00,0.00,0.02,71.0,69.1,.
15min,AgWx,beryljct,423,12AUG2017:11:45:00,80.9,57.1,45,865,17.8,12.2,180,0.00,0.00,0.02,72.0,69.1,.
15min,AgWx,beryljct,423,12AUG2017:12:00:00,79.2,56.3,44,734,18.3,13.4,179,0.00,0.00,0.02,72.9,69.1,.
15min,AgWx,beryljct,423,12AUG2017:12:15:00,73.9,52.9,45,520,23.3,16.6,207,0.00,0.00,0.02,73.8,69.1,.
15min,AgWx,beryljct,423,12AUG2017:12:30:00,75.7,53.5,47,432,18.2,11.7,190,0.00,0.00,0.02,74.4,69.1,.
15min,AgWx,beryljct,423,12AUG2017:12:45:00,75.4,51.2,42,349,16.7,12.6,201,0.00,0.00,0.02,75.0,69.1,.
15min,AgWx,beryljct,423,12AUG2017:13:00:00,74.0,52.1,47,387,15.5,11.8,213,0.00,0.00,0.02,75.3,69.1,.
15min,AgWx,beryljct,423,12AUG2017:13:15:00,74.3,51.4,43,689,25.9,18.0,193,0.00,0.00,0.02,75.4,69.1,.
15min,AgWx,beryljct,423,12AUG2017:13:30:00,72.4,51.4,45,563,24.5,17.3,177,0.00,0.00,0.02,75.6,69.1,.
15min,AgWx,beryljct,423,12AUG2017:13:45:00,74.0,54.9,55,654,16.8,12.9,156,0.00,0.00,0.02,75.8,69.1,.
15min,AgWx,beryljct,423,12AUG2017:14:00:00,75.3,54.7,49,1012,16.2,10.8,170,0.00,0.00,0.02,76.1,69.1,.
15min,AgWx,beryljct,423,12AUG2017:14:15:00,76.3,56.5,51,908,11.7,8.3,150,0.00,0.00,0.02,76.6,69.1,.
15min,AgWx,beryljct,423,12AUG2017:14:30:00,78.5,57.6,50,919,10.4,7.4,145,0.00,0.00,0.02,77.0,69.1,.
15min,AgWx,beryljct,423,12AUG2017:14:45:00,79.8,58.1,49,890,10.3,7.5,143,0.00,0.00,0.02,77.8,69.1,.
15min,AgWx,beryljct,423,12AUG2017:15:00:00,81.1,59.7,49,894,14.5,8.5,147,0.00,0.00,0.02,78.7,69.1,.
15min,AgWx,beryljct,423,12AUG2017:15:15:00,83.2,57.0,42,884,22.5,11.5,180,0.00,0.00,0.01,79.6,69.1,.
15min,AgWx,beryljct,423,12AUG2017:15:30:00,84.1,55.6,38,920,19.3,13.7,181,0.00,0.00,0.00,80.3,69.1,.
15min,AgWx,beryljct,423,12AUG2017:15:45:00,83.7,56.2,39,944,20.0,14.2,177,0.00,0.00,0.00,81.0,69.1,.
15min,AgWx,beryljct,423,12AUG2017:16:00:00,83.7,56.8,41,875,16.6,9.9,204,0.00,0.00,0.00,81.6,69.1,.
15min,AgWx,beryljct,423,12AUG2017:16:15:00,78.9,56.3,41,678,15.7,10.1,223,0.00,0.00,0.00,82.2,69.1,.
15min,AgWx,beryljct,423,12AUG2017:16:30:00,76.6,54.4,45,301,16.4,10.4,300,0.00,0.00,0.00,82.8,69.1,.
15min,AgWx,beryljct,423,12AUG2017:16:45:00,76.9,52.1,43,210,14.3,9.6,316,0.00,0.00,0.00,83.1,69.1,.
15min,AgWx,beryljct,423,12AUG2017:17:00:00,74.1,50.6,42,111,11.1,7.9,309,0.00,0.00,0.00,83.2,69.1,.
15min,AgWx,beryljct,423,12AUG2017:17:15:00,70.8,51.5,47,41,19.2,8.3,286,0.00,0.00,0.00,82.8,69.1,.
15min,AgWx,beryljct,423,12AUG2017:17:30:00,64.9,51.4,54,19,30.3,19.0,285,0.01,0.01,0.01,82.4,69.1,.
15min,AgWx,beryljct,423,12AUG2017:17:45:00,63.3,54.1,71,8,24.6,17.8,295,0.11,0.12,0.12,81.9,69.1,.
15min,AgWx,beryljct,423,12AUG2017:18:00:00,68.8,54.2,71,6,14.9,8.6,325,0.07,0.19,0.19,81.1,69.1,.
15min,AgWx,beryljct,423,12AUG2017:18:15:00,68.3,51.6,56,5,12.8,6.9,22,0.00,0.19,0.19,80.2,69.1,.
15min,AgWx,beryljct,423,12AUG2017:18:30:00,65.5,50.3,55,20,22.8,10.9,145,0.00,0.18,0.19,79.1,69.1,.
15min,AgWx,beryljct,423,12AUG2017:18:45:00,68.3,52.4,59,52,19.0,12.9,146,0.00,0.07,0.19,78.2,69.1,.
15min,AgWx,beryljct,423,12AUG2017:19:00:00,66.6,53.8,63,159,15.4,9.8,159,0.00,0.00,0.19,77.4,69.1,.
15min,AgWx,beryljct,423,12AUG2017:19:15:00,67.0,57.2,69,316,11.4,5.2,155,0.00,0.00,0.19,76.7,69.1,.
15min,AgWx,beryljct,423,12AUG2017:19:30:00,66.6,58.0,73,249,13.7,10.1,188,0.00,0.00,0.19,76.2,69.1,.
15min,AgWx,beryljct,423,12AUG2017:19:45:00,66.7,58.4,74,172,12.3,9.6,189,0.00,0.00,0.19,75.8,69.1,.
15min,AgWx,beryljct,423,12AUG2017:20:00:00,67.0,58.4,74,146,11.5,8.1,186,0.00,0.00,0.19,75.4,69.1,.
15min,AgWx,beryljct,423,12AUG2017:20:15:00,67.1,57.1,70,83,9.8,7.7,192,0.00,0.00,0.19,75.0,69.1,.
15min,AgWx,beryljct,423,12AUG2017:20:30:00,66.2,56.8,71,25,8.9,6.4,184,0.00,0.00,0.19,74.7,69.1,.
15min,AgWx,beryljct,423,12AUG2017:20:45:00,66.9,56.3,70,4,11.7,6.8,186,0.00,0.00,0.19,74.2,69.1,.
15min,AgWx,beryljct,423,12AUG2017:21:00:00,67.7,54.6,64,0,13.7,8.6,214,0.00,0.00,0.19,73.8,69.1,.
15min,AgWx,beryljct,423,12AUG2017:21:15:00,66.7,55.0,64,0,9.3,4.3,177,0.00,0.00,0.19,73.4,69.1,.
15min,AgWx,beryljct,423,12AUG2017:21:30:00,68.2,54.7,63,0,5.9,2.2,57,0.00,0.00,0.19,73.0,69.1,.
15min,AgWx,beryljct,423,12AUG2017:21:45:00,63.3,56.3,72,0,6.4,4.1,135,0.00,0.00,0.19,72.6,69.1,.
15min,AgWx,beryljct,423,12AUG2017:22:00:00,61.4,56.3,82,0,6.0,4.2,86,0.00,0.00,0.19,72.2,69.1,.
15min,AgWx,beryljct,423,12AUG2017:22:15:00,61.7,55.2,81,0,4.8,2.7,14,0.00,0.00,0.19,71.9,69.1,.
15min,AgWx,beryljct,423,12AUG2017:22:30:00,62.1,55.9,82,0,4.3,2.6,315,0.00,0.00,0.19,71.5,69.1,.
15min,AgWx,beryljct,423,12AUG2017:22:45:00,59.1,54.5,81,0,4.3,2.0,320,0.00,0.00,0.19,71.2,69.1,.
15min,AgWx,beryljct,423,12AUG2017:23:00:00,60.6,53.8,81,0,2.7,0.9,215,0.00,0.00,0.19,70.9,69.1,.
15min,AgWx,beryljct,423,12AUG2017:23:15:00,59.9,54.3,81,0,2.2,0.5,248,0.00,0.00,0.19,70.5,69.1,.
15min,AgWx,beryljct,423,12AUG2017:23:30:00,59.9,54.8,82,0,4.8,3.1,204,0.00,0.00,0.19,70.2,69.1,.
15min,AgWx,beryljct,423,12AUG2017:23:45:00,58.2,53.4,81,0,5.5,2.9,162,0.00,0.00,0.19,69.7,69.1,.
15min,AgWx,beryljct,423,13AUG2017:00:00:00,59.6,53.1,81,0,5.1,3.3,74,0.00,0.00,0.19,69.5,69.1,.
15min,AgWx,beryljct,423,13AUG2017:00:15:00,57.0,51.8,81,0,4.3,2.7,198,0.00,0.00,0.19,69.2,69.1,.
15min,AgWx,beryljct,423,13AUG2017:00:30:00,56.9,51.0,81,0,7.3,3.0,124,0.00,0.00,0.19,68.9,69.1,.
15min,AgWx,birchsprings,428,12AUG2017:00:00:00,54.7,47.8,79,0,0.9,0.1,295,0.00,0.00,0.04,65.1,0.0,.
15min,AgWx,birchsprings,428,12AUG2017:00:15:00,54.6,48.0,78,0,2.6,1.0,236,0.00,0.00,0.04,64.9,0.0,.
15min,AgWx,birchsprings,428,12AUG2017:00:30:00,53.4,48.0,80,0,2.0,0.4,254,0.00,0.00,0.04,64.6,0.0,.
15min,AgWx,birchsprings,428,12AUG2017:00:45:00,54.0,48.2,82,0,3.4,1.6,256,0.00,0.00,0.04,64.4,0.0,.
15min,AgWx,birchsprings,428,12AUG2017:01:00:00,54.4,47.7,78,0,4.9,2.4,224,0.00,0.00,0.04,64.3,0.0,.
15min,AgWx,birchsprings,428,12AUG2017:01:15:00,53.3,47.7,79,0,5.3,2.4,237,0.00,0.00,0.04,64.1,0.0,.
15min,AgWx,birchsprings,428,12AUG2017:01:30:00,52.3,47.7,84,0,4.4,2.0,245,0.00,0.00,0.04,63.9,0.0,.
15min,AgWx,birchsprings,428,12AUG2017:01:45:00,52.5,47.4,83,0,2.8,0.8,233,0.00,0.00,0.04,63.7,0.0,.
15min,AgWx,birchsprings,428,12AUG2017:02:00:00,52.7,47.3,82,0,3.8,1.5,231,0.00,0.00,0.04,63.5,0.0,.
15min,AgWx,birchsprings,428,12AUG2017:02:15:00,52.3,46.6,80,0,6.0,3.2,224,0.00,0.00,0.04,63.3,0.0,.
15min,AgWx,birchsprings,428,12AUG2017:02:30:00,51.9,46.4,83,0,5.6,3.3,260,0.00,0.00,0.04,63.3,0.0,.
15min,AgWx,birchsprings,428,12AUG2017:02:45:00,50.3,46.5,85,0,6.2,3.6,242,0.00,0.00,0.04,63.0,0.0,.
15min,AgWx,birchsprings,428,12AUG2017:03:00:00,51.5,46.2,83,0,6.4,3.6,303,0.00,0.00,0.04,62.9,0.0,.
15min,AgWx,birchsprings,428,12AUG2017:03:15:00,52.7,46.0,78,0,4.2,2.3,266,0.00,0.00,0.04,62.6,0.0,.
15min,AgWx,birchsprings,428,12AUG2017:03:30:00,51.8,46.7,82,0,3.8,1.9,266,0.00,0.00,0.04,62.4,0.0,.
15min,AgWx,birchsprings,428,12AUG2017:03:45:00,53.8,47.1,81,0,6.6,1.9,254,0.00,0.00,0.04,62.3,0.0,.
15min,AgWx,birchsprings,428,12AUG2017:04:00:00,58.5,47.9,80,0,11.3,2.8,278,0.00,0.00,0.04,62.2,0.0,.
15min,AgWx,birchsprings,428,12AUG2017:04:15:00,63.1,45.6,56,0,14.0,6.4,285,0.00,0.00,0.04,62.0,0.0,.
15min,AgWx,birchsprings,428,12AUG2017:04:30:00,62.6,45.7,53,0,11.4,6.7,267,0.00,0.00,0.04,61.9,0.0,.
15min,AgWx,birchsprings,428,12AUG2017:04:45:00,63.0,46.0,54,0,14.1,7.9,253,0.00,0.00,0.04,61.9,0.0,.
15min,AgWx,birchsprings,428,12AUG2017:05:00:00,61.7,46.6,57,0,11.1,6.1,248,0.00,0.00,0.04,61.7,0.0,.
15min,AgWx,birchsprings,428,12AUG2017:05:15:00,61.0,46.7,58,0,5.1,2.2,295,0.00,0.00,0.04,61.5,0.0,.
15min,AgWx,birchsprings,428,12AUG2017:05:30:00,59.3,47.5,63,0,3.7,1.3,71,0.00,0.00,0.04,61.6,0.0,.
15min,AgWx,birchsprings,428,12AUG2017:05:45:00,58.7,48.5,68,0,2.0,0.8,323,0.00,0.00,0.04,61.5,0.0,.
15min,AgWx,birchsprings,428,12AUG2017:06:00:00,57.6,50.1,74,0,8.7,3.7,224,0.00,0.00,0.04,61.4,0.0,.
15min,AgWx,birchsprings,428,12AUG2017:06:15:00,56.4,50.2,77,0,3.9,1.9,197,0.00,0.00,0.04,61.3,0.0,.
15min,AgWx,birchsprings,428,12AUG2017:06:30:00,55.6,51.0,84,1,3.3,1.3,129,0.00,0.00,0.04,61.3,0.0,.
15min,AgWx,birchsprings,428,12AUG2017:06:45:00,54.8,51.4,87,8,2.1,0.7,241,0.00,0.00,0.04,61.2,0.0,.
15min,AgWx,birchsprings,428,12AUG2017:07:00:00,56.3,51.6,85,22,3.9,1.9,294,0.00,0.00,0.04,61.2,0.0,.
15min,AgWx,birchsprings,428,12AUG2017:07:15:00,56.3,51.6,83,39,5.6,1.8,230,0.00,0.00,0.04,61.1,0.0,.
15min,AgWx,birchsprings,428,12AUG2017:07:30:00,56.4,52.0,85,44,4.5,1.2,228,0.00,0.00,0.04,61.1,0.0,.
15min,AgWx,birchsprings,428,12AUG2017:07:45:00,60.1,50.5,74,82,5.7,1.4,8.0,0.00,0.00,0.04,61.0,0.0,.
15min,AgWx,birchsprings,428,12AUG2017:08:00:00,60.4,50.5,70,46,6.5,3.1,86,0.00,0.00,0.04,61.0,0.0,.
15min,AgWx,birchsprings,428,12AUG2017:08:15:00,58.6,51.4,74,81,4.0,2.4,200,0.00,0.00,0.04,60.9,0.0,.
15min,AgWx,birchsprings,428,12AUG2017:08:30:00,58.6,52.8,81,123,5.2,2.8,297,0.00,0.00,0.04,60.9,0.0,.
15min,AgWx,birchsprings,428,12AUG2017:08:45:00,59.7,51.8,77,115,10.8,4.1,317,0.00,0.00,0.04,60.7,0.0,.
15min,AgWx,birchsprings,428,12AUG2017:09:00:00,62.6,51.2,70,166,5.4,3.3,250,0.00,0.00,0.04,60.7,0.0,.
15min,AgWx,birchsprings,428,12AUG2017:09:15:00,66.3,50.5,63,282,8.9,3.6,221,0.00,0.00,0.04,60.8,0.0,.
15min,AgWx,birchsprings,428,12AUG2017:09:30:00,69.6,48.7,50,523,8.9,4.9,205,0.00,0.00,0.04,60.8,0.0,.
15min,AgWx,birchsprings,428,12AUG2017:09:45:00,67.6,47.1,45,288,6.6,3.8,195,0.00,0.00,0.04,60.8,0.0,.
15min,AgWx,birchsprings,428,12AUG2017:10:00:00,67.6,47.8,48,266,9.4,5.1,194,0.00,0.00,0.04,60.9,0.0,.
15min,AgWx,birchsprings,428,12AUG2017:10:15:00,66.8,48.7,53,281,9.3,3.4,119,0.00,0.00,0.04,61.0,0.0,.
15min,AgWx,birchsprings,428,12AUG2017:10:30:00,72.2,46.5,44,652,5.3,2.4,208,0.00,0.00,0.04,61.0,0.0,.
15min,AgWx,birchsprings,428,12AUG2017:10:45:00,70.4,47.2,42,711,7.6,3.9,48,0.00,0.00,0.04,61.2,0.0,.
15min,AgWx,birchsprings,428,12AUG2017:11:00:00,73.1,46.0,41,731,5.4,3.3,45,0.00,0.00,0.04,61.2,0.0,.
15min,AgWx,birchsprings,428,12AUG2017:11:15:00,72.7,46.2,38,761,4.6,2.2,59,0.00,0.00,0.04,61.4,0.0,.
15min,AgWx,birchsprings,428,12AUG2017:11:30:00,74.9,47.3,38,794,5.6,3.1,77,0.00,0.00,0.04,61.4,0.0,.
15min,AgWx,birchsprings,428,12AUG2017:11:45:00,75.8,46.9,36,824,5.7,3.6,76,0.00,0.00,0.04,61.6,0.0,.
15min,AgWx,birchsprings,428,12AUG2017:12:00:00,77.3,46.3,35,867,7.9,4.4,74,0.00,0.00,0.04,61.8,0.0,.
15min,AgWx,birchsprings,428,12AUG2017:12:15:00,78.0,47.0,34,922,7.4,4.0,78,0.00,0.00,0.04,62.2,0.0,.
15min,AgWx,birchsprings,428,12AUG2017:12:30:00,77.4,46.9,33,735,7.9,3.5,93,0.00,0.00,0.04,62.5,0.0,.
15min,AgWx,birchsprings,428,12AUG2017:12:45:00,73.9,46.9,37,165,4.4,2.1,82,0.00,0.00,0.04,63.1,0.0,.
15min,AgWx,birchsprings,428,12AUG2017:13:00:00,74.8,44.6,35,146,2.9,1.4,129,0.00,0.00,0.04,63.4,0.0,.
15min,AgWx,birchsprings,428,12AUG2017:13:15:00,76.0,42.9,31,164,5.2,2.6,172,0.00,0.00,0.04,63.7,0.0,.
15min,AgWx,birchsprings,428,12AUG2017:13:30:00,76.9,42.7,30,218,9.7,5.0,189,0.00,0.00,0.01,64.1,0.0,.
15min,AgWx,birchsprings,428,12AUG2017:13:45:00,81.7,43.5,28,740,10.7,5.4,147,0.00,0.00,0.00,64.3,0.0,.
15min,AgWx,birchsprings,428,12AUG2017:14:00:00,76.8,44.0,28,378,10.5,6.4,203,0.00,0.00,0.00,64.6,0.0,.
15min,AgWx,birchsprings,428,12AUG2017:14:15:00,75.4,41.4,29,264,9.8,6.3,222,0.00,0.00,0.00,64.8,0.0,.
15min,AgWx,birchsprings,428,12AUG2017:14:30:00,74.8,39.8,28,193,10.1,5.5,214,0.00,0.00,0.00,65.0,0.0,.
15min,AgWx,birchsprings,428,12AUG2017:14:45:00,74.1,44.2,35,318,6.4,3.1,252,0.00,0.00,0.00,65.2,0.0,.
15min,AgWx,birchsprings,428,12AUG2017:15:00:00,73.3,44.2,34,291,5.3,2.5,246,0.00,0.00,0.00,65.5,0.0,.
15min,AgWx,birchsprings,428,12AUG2017:15:15:00,75.6,44.4,36,244,6.8,1.5,226,0.00,0.00,0.00,65.6,0.0,.
15min,AgWx,birchsprings,428,12AUG2017:15:30:00,75.4,40.4,27,543,13.9,7.3,212,0.00,0.00,0.00,65.8,0.0,.
15min,AgWx,birchsprings,428,12AUG2017:15:45:00,75.4,42.4,31,311,8.2,4.0,230,0.00,0.00,0.00,66.0,0.0,.
15min,AgWx,birchsprings,428,12AUG2017:16:00:00,78.3,42.1,28,571,14.3,8.3,218,0.00,0.00,0.00,66.3,0.0,.
15min,AgWx,birchsprings,428,12AUG2017:16:15:00,76.5,42.3,28,294,12.3,8.3,213,0.00,0.00,0.00,66.5,0.0,.
15min,AgWx,birchsprings,428,12AUG2017:16:30:00,77.3,43.9,32,335,11.3,7.1,230,0.00,0.00,0.00,66.8,0.0,.
15min,AgWx,birchsprings,428,12AUG2017:16:45:00,77.0,43.7,29,495,13.6,8.9,222,0.00,0.00,0.00,66.9,0.0,.
15min,AgWx,birchsprings,428,12AUG2017:17:00:00,77.6,41.7,27,345,14.3,8.7,202,0.00,0.00,0.00,67.0,0.0,.
15min,AgWx,birchsprings,428,12AUG2017:17:15:00,73.0,46.1,35,151,7.1,3.5,239,0.00,0.00,0.00,67.3,0.0,.
15min,AgWx,birchsprings,428,12AUG2017:17:30:00,75.2,47.6,39,383,16.3,5.7,59,0.00,0.00,0.00,67.4,0.0,.
15min,AgWx,birchsprings,428,12AUG2017:17:45:00,78.0,47.3,36,335,6.8,3.1,114,0.00,0.00,0.00,67.7,0.0,.
15min,AgWx,birchsprings,428,12AUG2017:18:00:00,78.3,48.4,35,407,7.7,4.0,111,0.00,0.00,0.00,67.8,0.0,.
15min,AgWx,birchsprings,428,12AUG2017:18:15:00,76.0,51.3,41,384,7.3,3.3,79,0.00,0.00,0.00,67.8,0.0,.
15min,AgWx,birchsprings,428,12AUG2017:18:30:00,74.9,53.7,49,202,5.0,2.5,83,0.00,0.00,0.00,68.0,0.0,.
15min,AgWx,birchsprings,428,12AUG2017:18:45:00,78.4,50.2,39,265,5.7,2.7,116,0.00,0.00,0.00,68.1,0.0,.
15min,AgWx,birchsprings,428,12AUG2017:19:00:00,79.3,45.0,30,190,6.4,3.5,150,0.00,0.00,0.00,68.1,0.0,.
15min,AgWx,birchsprings,428,12AUG2017:19:15:00,76.0,43.1,29,46,7.1,3.4,179,0.00,0.00,0.00,68.1,0.0,.
15min,AgWx,birchsprings,428,12AUG2017:19:30:00,70.2,47.0,39,28,4.2,1.5,224,0.00,0.00,0.00,68.1,0.0,.
15min,AgWx,birchsprings,428,12AUG2017:19:45:00,72.1,47.9,42,79,8.0,3.4,142,0.00,0.00,0.00,68.2,0.0,.
15min,AgWx,birchsprings,428,12AUG2017:20:00:00,70.7,50.6,49,74,5.7,3.5,357,0.00,0.00,0.00,68.1,0.0,.
15min,AgWx,birchsprings,428,12AUG2017:20:15:00,72.5,47.2,42,46,17.8,9.8,45,0.00,0.00,0.00,68.1,0.0,.
15min,AgWx,birchsprings,428,12AUG2017:20:30:00,67.6,47.8,45,5,14.6,9.4,58,0.00,0.00,0.00,68.1,0.0,.
15min,AgWx,birchsprings,428,12AUG2017:20:45:00,68.8,49.6,51,0,12.3,8.0,73,0.00,0.00,0.00,67.9,0.0,.
15min,AgWx,birchsprings,428,12AUG2017:21:00:00,67.2,48.1,50,0,15.7,8.9,95,0.00,0.00,0.00,67.8,0.0,.
15min,AgWx,birchsprings,428,12AUG2017:21:15:00,67.1,48.5,51,0,15.4,8.5,98,0.00,0.00,0.00,67.7,0.0,.
15min,AgWx,birchsprings,428,12AUG2017:21:30:00,67.4,48.7,52,0,12.2,7.1,92,0.00,0.00,0.00,67.7,0.0,.
15min,AgWx,birchsprings,428,12AUG2017:21:45:00,67.4,47.5,48,0,12.1,4.9,93,0.00,0.00,0.00,67.5,0.0,.
15min,AgWx,birchsprings,428,12AUG2017:22:00:00,66.2,50.2,57,0,11.6,6.4,77,0.00,0.00,0.00,67.3,0.0,.
15min,AgWx,birchsprings,428,12AUG2017:22:15:00,66.2,49.7,55,0,8.5,5.2,80,0.00,0.00,0.00,67.1,0.0,.
15min,AgWx,birchsprings,428,12AUG2017:22:30:00,66.5,48.0,51,0,8.0,4.3,113,0.00,0.00,0.00,67.0,0.0,.
15min,AgWx,birchsprings,428,12AUG2017:22:45:00,66.0,45.7,47,0,5.2,2.9,166,0.00,0.00,0.00,66.9,0.0,.
15min,AgWx,birchsprings,428,12AUG2017:23:00:00,60.0,47.3,58,0,4.7,1.5,244,0.00,0.00,0.00,66.7,0.0,.
15min,AgWx,birchsprings,428,12AUG2017:23:15:00,58.0,47.7,66,0,4.3,2.2,221,0.00,0.00,0.00,66.4,0.0,.
15min,AgWx,birchsprings,428,12AUG2017:23:30:00,57.1,48.8,72,0,3.9,1.7,224,0.00,0.00,0.00,66.3,0.0,.
15min,AgWx,birchsprings,428,12AUG2017:23:45:00,56.7,48.9,75,0,4.9,2.6,207,0.00,0.00,0.00,66.1,0.0,.
15min,AgWx,birchsprings,428,13AUG2017:00:00:00,56.0,49.0,76,0,3.8,2.0,236,0.00,0.00,0.00,66.1,0.0,.
15min,AgWx,birchsprings,428,13AUG2017:00:15:00,55.5,48.5,77,0,4.8,2.5,230,0.00,0.00,0.00,65.9,0.0,.
15min,AgWx,birchsprings,428,13AUG2017:00:30:00,54.3,48.4,79,0,4.1,2.6,223,0.00,0.00,0.00,65.5,0.0,.
15min,AgWx,birchsprings,428,13AUG2017:00:45:00,53.6,48.8,85,0,3.4,2.5,255,0.00,0.00,0.00,65.4,0.0,.
15min,AgWx,blo,425,12AUG2017:00:00:00,62.4,45.0,54,0,4.9,4.0,209,0.00,0.00,0.00,70.3,70.5,9
15min,AgWx,blo,425,12AUG2017:00:15:00,61.5,47.8,59,0,5.0,3.7,214,0.00,0.00,0.00,70.1,70.4,9
15min,AgWx,blo,425,12AUG2017:00:30:00,60.4,47.2,60,0,7.4,4.9,205,0.00,0.00,0.00,70.1,70.3,9
15min,AgWx,blo,425,12AUG2017:00:45:00,60.0,46.6,61,0,6.8,4.8,212,0.00,0.00,0.00,70.1,70.3,9
15min,AgWx,blo,425,12AUG2017:01:00:00,61.7,46.5,59,0,5.8,4.7,210,0.00,0.00,0.00,70.0,70.1,9
15min,AgWx,blo,425,12AUG2017:01:15:00,63.3,45.0,54,0,4.7,3.4,213,0.00,0.00,0.00,69.8,70.1,9
15min,AgWx,blo,425,12AUG2017:01:30:00,64.7,40.3,41,0,6.0,4.2,238,0.00,0.00,0.00,69.7,70.0,9
15min,AgWx,blo,425,12AUG2017:01:45:00,67.5,39.0,37,0,21.2,12.1,230,0.00,0.00,0.00,69.7,69.9,9
15min,AgWx,blo,425,12AUG2017:02:00:00,57.6,44.3,52,0,23.5,12.5,224,0.09,0.09,0.09,69.6,69.9,9
15min,AgWx,blo,425,12AUG2017:02:15:00,56.7,47.9,70,0,18.3,11.6,193,0.00,0.09,0.09,69.5,69.8,8
15min,AgWx,blo,425,12AUG2017:02:30:00,56.1,48.9,76,0,12.5,10.4,181,0.00,0.09,0.09,69.4,69.7,8
15min,AgWx,blo,425,12AUG2017:02:45:00,56.2,48.5,75,0,11.2,8.6,190,0.00,0.09,0.09,69.4,69.7,9
15min,AgWx,blo,425,12AUG2017:03:00:00,56.7,47.2,70,0,12.8,10.2,188,0.00,0.00,0.09,69.2,69.6,8
15min,AgWx,blo,425,12AUG2017:03:15:00,55.2,47.1,71,0,9.5,7.0,189,0.00,0.00,0.09,69.1,69.5,9
15min,AgWx,blo,425,12AUG2017:03:30:00,55.3,46.8,72,0,10.2,7.9,201,0.00,0.00,0.09,69.1,69.4,9
15min,AgWx,blo,425,12AUG2017:03:45:00,56.3,45.9,68,0,10.0,8.3,194,0.00,0.00,0.09,68.9,69.3,9
15min,AgWx,blo,425,12AUG2017:04:00:00,57.1,45.7,69,0,14.7,9.6,188,0.00,0.00,0.09,68.9,69.2,9
15min,AgWx,blo,425,12AUG2017:04:15:00,56.9,44.6,64,0,13.5,10.1,192,0.00,0.00,0.09,68.7,69.2,9
15min,AgWx,blo,425,12AUG2017:04:30:00,56.1,44.2,63,0,10.3,7.6,198,0.00,0.00,0.09,68.7,69.0,9
15min,AgWx,blo,425,12AUG2017:04:45:00,56.0,44.8,67,0,7.5,5.3,206,0.00,0.00,0.09,68.6,69.0,9
15min,AgWx,blo,425,12AUG2017:05:00:00,56.9,43.8,62,0,8.9,5.3,185,0.00,0.00,0.09,68.5,68.8,9
15min,AgWx,blo,425,12AUG2017:05:15:00,58.8,43.7,62,0,7.5,5.3,220,0.00,0.00,0.09,68.4,68.8,9
15min,AgWx,blo,425,12AUG2017:05:30:00,60.0,41.9,52,0,10.9,6.3,241,0.00,0.00,0.09,68.3,68.7,9
15min,AgWx,blo,425,12AUG2017:05:45:00,58.5,42.7,54,0,8.2,5.5,297,0.00,0.00,0.09,68.2,68.6,9
15min,AgWx,blo,425,12AUG2017:06:00:00,59.7,43.6,57,0,6.5,4.0,304,0.00,0.00,0.09,68.0,68.5,9
15min,AgWx,blo,425,12AUG2017:06:15:00,58.2,44.4,58,0,4.9,3.4,241,0.00,0.00,0.09,67.9,68.4,9
15min,AgWx,blo,425,12AUG2017:06:30:00,56.7,45.0,62,1,5.0,3.2,198,0.00,0.00,0.09,67.8,68.3,9
15min,AgWx,blo,425,12AUG2017:06:45:00,55.6,45.4,66,4,5.9,4.0,209,0.00,0.00,0.09,67.7,68.2,9
15min,AgWx,blo,425,12AUG2017:07:00:00,54.4,45.9,71,20,7.0,4.6,209,0.00,0.00,0.09,67.7,68.1,9
15min,AgWx,blo,425,12AUG2017:07:15:00,54.9,46.3,74,42,6.2,4.3,207,0.00,0.00,0.09,67.6,68.1,9
15min,AgWx,blo,425,12AUG2017:07:30:00,58.3,46.1,69,75,6.2,4.0,197,0.00,0.00,0.09,67.5,68.0,9
15min,AgWx,blo,425,12AUG2017:07:45:00,57.3,46.3,66,42,5.9,4.7,214,0.00,0.00,0.09,67.4,67.9,9
15min,AgWx,blo,425,12AUG2017:08:00:00,58.5,45.2,60,92,8.7,6.0,243,0.00,0.00,0.09,67.3,67.8,9
15min,AgWx,blo,425,12AUG2017:08:15:00,59.8,45.5,59,103,12.9,9.6,183,0.00,0.00,0.09,67.2,67.7,9
15min,AgWx,blo,425,12AUG2017:08:30:00,62.0,45.5,58,113,10.2,7.6,182,0.00,0.00,0.09,67.1,67.6,9
15min,AgWx,blo,425,12AUG2017:08:45:00,64.8,45.9,52,401,11.9,6.1,185,0.00,0.00,0.09,67.0,67.5,9
15min,AgWx,blo,425,12AUG2017:09:00:00,65.1,45.6,51,245,8.9,6.7,178,0.00,0.00,0.09,66.9,67.5,9
15min,AgWx,blo,425,12AUG2017:09:15:00,68.0,44.6,46,401,9.2,6.2,193,0.00,0.00,0.09,66.9,67.4,9
15min,AgWx,blo,425,12AUG2017:09:30:00,68.9,43.4,41,494,11.1,6.0,173,0.00,0.00,0.09,66.8,67.4,9
15min,AgWx,blo,425,12AUG2017:09:45:00,71.1,43.2,38,562,8.6,4.6,154,0.00,0.00,0.09,66.6,67.3,8